ATLAS 5 CENTAUR DEB, 43985

Orbit data source: Space-Track

ATLAS 5 CENTAUR DEB, 43985 is space debris in HEO originally from a launch on Wed, 17 Sep 2014 UTC launched from the Air Force Eastern Test Range (AFETR). Debris objects in space refer to the collection of defunct objects orbiting the Earth. Examples of debris include non-operational satellites, rocket bodies, and fragments generated from explosions, collisions, or faulty payload assembly.

Not visible in the next 10 days
Identifier
43985, 2014-055AQ
Orbit
HEO
Country
Flag of USUS
Related business
Flag of USUnited Launch Alliance/Lockheed Martin (US)
Manufacturer
Unknown
Mission
Spacecraft
Bus & Motor
Unknown
Mass
Unknown
Launch date (UTC)
2014-09-17 (12 years ago)
Launch vehicle
Unknown
Launch site
Air Force Eastern Test Range (AFETR)
Object type
Payload
Rocket body
Debris
Shape & HBR
Unknown shape, 1.1 m
Radar Cross Section
Medium (>0.1 m² and <1 m²)

Expand to show TLE details & history
Last TLE update: 6 days ago

TLE from 6 days ago
0 ATLAS 5 CENTAUR DEB
1 43985U 14055AQ  26153.96217347 -.00000016  00000-0  00000-0 0  9998
2 43985  19.0143 175.0553 4729605 104.9614 310.5444  1.76686462 11776
Epoch: 2026-06-02T23:05Z
TLE epoch observation values (Epoch: 2026-06-02T23:05:31.787Z)
Latitude
-0.00007°
Longitude
-62.68806°
Altitude
19,126.921 km
Speed
4.179 km/s
True Right ascension
11h 40m 29s
True Declination
0° 00' 00"
Sunlit
Object was in daylight at epoch
Visualization orbit readout
Latitude
Unknown
Longitude
Unknown
Altitude
Unknown
Speed
Unknown
Apparent Right ascension
Unknown
Apparent Declination
Unknown
Sunlit
N/A
Visualization observer readout
Local Sidereal Time
18:55:40
Azimuth
Unknown
Elevation
Unknown
Doppler factor
Unknown
Orbital elements
Apogee altitude
36,196.652 km
Perigee altitude
8,855.534 km
Semi-major axis
28,904.23 km
Eccentricity
0.47296
Inclination
19.0143°
RAAN
175.0553°
Arg. of periapsis
104.9614°
True anomaly
255.15954°
Mean anomaly
310.5444°
Eccentric anomaly
284.28346°
Mean motion
0.44167 °/min
Orbital period
815.08 mins
BSTAR
0
Loading maneuver chart data...
Computing Atmospheric mass density...

Documentation

Showing up to 5 results
|